Weather History for KSAF - August, 2013

Change the Weather History Date:

Friday, August 23, 2013

  Actual Average Record
Temperature  
Mean Temperature 70 °F -  
Max Temperature 87 °F 89 °F 93 °F (2010)
Min Temperature 57 °F 52 °F 48 °F (2014)
Cooling Degree Days 6    
Growing Degree Days 20 (Base 50)    
Moisture  
Dew Point 41 °F    
Average Humidity 36    
Maximum Humidity 54    
Minimum Humidity 17    
Precipitation  
Precipitation 0.00 in - - ()
Sea Level Pressure  
Sea Level Pressure 29.92 in    
Wind  
Wind Speed 9 mph (SSE)    
Max Wind Speed 20 mph    
Max Gust Speed 26 mph    
Visibility 10 miles    
Events      
Averages and records for this station are not official NWS values.
T = Trace of Precipitation, MM = Missing Value Source: NWS Daily Summary

Daily Weather History Graph

Daily Weather History Graph

Search for Another Location

Airport or City:

Trip Planner

Search our weather history database for the weather conditions in past years. The results will help you decide how hot, cold, wet, or windy it might be!

Date:

Astronomy

Aug. 23, 2013 Rise Set
Actual Time 6:29 AM MDT 7:43 PM MDT
Civil Twilight 6:03 AM MDT 8:09 PM MDT
Nautical Twilight 5:31 AM MDT 8:41 PM MDT
Astronomical Twilight 4:58 AM MDT 9:14 PM MDT
Moon 9:12 PM MDT (8/23) 9:19 AM MDT (8/23)
Length of Visible Light 14h 06m
Length of Day
13h 13m
Waning Gibbous, 91% of the Moon is Illuminated
Aug 23
Waning Gibbous
Aug 28
Last Quarter
Sep 5
New
Sep 12
First Quarter
Sep 19
Full

Hourly Weather History & Observations

Time (MDT) Temp. Dew Point Humidity Pressure Visibility Wind Dir Wind Speed Gust Speed Precip Events Conditions
12:53 AM 69.1 °F 34.0 °F 27% 29.92 in 10.0 mi ESE 16.1 mph - N/A   Clear
1:53 AM 66.0 °F 35.1 °F 32% 29.94 in 10.0 mi Variable 5.8 mph - N/A   Clear
2:53 AM 63.0 °F 36.0 °F 37% 29.99 in 10.0 mi West 3.5 mph - N/A   Clear
3:53 AM 61.0 °F 36.0 °F 39% 29.94 in 10.0 mi North 3.5 mph - N/A   Clear
4:53 AM 57.9 °F 37.0 °F 46% 29.95 in 10.0 mi NNW 4.6 mph - N/A   Clear
5:53 AM 57.9 °F 37.9 °F 47% 29.96 in 10.0 mi Calm Calm - N/A   Clear
6:53 AM 57.0 °F 37.9 °F 49% 29.97 in 10.0 mi North 4.6 mph - N/A   Clear
7:53 AM 66.0 °F 43.0 °F 43% 29.97 in 10.0 mi Calm Calm - N/A   Clear
8:53 AM 72.0 °F 46.9 °F 41% 29.96 in 10.0 mi SSE 6.9 mph - N/A   Clear
9:53 AM 75.0 °F 46.0 °F 36% 29.97 in 10.0 mi SE 10.4 mph - N/A   Clear
10:53 AM 80.1 °F 36.0 °F 20% 29.95 in 10.0 mi South 11.5 mph - N/A   Clear
11:53 AM 81.0 °F 37.9 °F 21% 29.94 in 10.0 mi SSW 10.4 mph - N/A   Clear
12:53 PM 82.0 °F 35.1 °F 18% 29.91 in 10.0 mi South 15.0 mph 21.9 mph N/A   Clear
1:53 PM 84.9 °F 37.0 °F 18% 29.88 in 10.0 mi South 16.1 mph 23.0 mph N/A   Clear
2:53 PM 84.0 °F 34.0 °F 17% 29.86 in 10.0 mi Variable 4.6 mph 19.6 mph N/A   Clear
3:53 PM 84.9 °F 37.9 °F 19% 29.85 in 10.0 mi Variable 5.8 mph 20.7 mph N/A   Partly Cloudy
4:53 PM 82.0 °F 44.1 °F 26% 29.86 in 10.0 mi SSE 15.0 mph 26.5 mph N/A   Mostly Cloudy
5:53 PM 79.0 °F 44.1 °F 29% 29.88 in 10.0 mi South 19.6 mph 26.5 mph N/A   Mostly Cloudy
6:53 PM 73.0 °F 48.0 °F 41% 29.93 in 10.0 mi SSE 13.8 mph - N/A   Partly Cloudy
7:53 PM 70.0 °F 48.9 °F 47% 29.89 in 10.0 mi SE 11.5 mph - N/A   Clear
8:53 PM 68.0 °F 48.9 °F 50% 29.91 in 10.0 mi South 4.6 mph - N/A   Clear
9:53 PM 66.9 °F 50.0 °F 54% 29.92 in 10.0 mi SSW 5.8 mph - N/A   Mostly Cloudy
10:53 PM 66.9 °F 48.9 °F 52% 29.92 in 10.0 mi SE 9.2 mph - N/A   Clear
11:53 PM 66.9 °F 48.0 °F 51% 29.93 in 10.0 mi SE 10.4 mph - N/A   Clear